Terminal Aerodrome Forecast
Issued by NWS

Home | Current Version | Previous Version | Text Only | Print | Product List | Glossary On
Versions: 1 2 3 4 5 6 7 8 9 10 11 12 13 14 15 16 17 18 19 20 21 22 23 24 25 26 27
000
FTAK31 PAFA 250530
TAFAQT
TAF
PAQT 250530Z 2506/2606 15007KT P6SM -SN FEW025 BKN035 OVC040
     FM250900 15007KT 6SM -SHSN BR SCT025 OVC050
     FM251400 15005KT P6SM SCT025 OVC050
     FM260100 13007KT P6SM -SHSN OVC015=

USA.gov is the U.S. government's official web portal to all federal, state and local government web resources and services.